Weather History for Kinloss, United Kingdom

Change the Weather History Date:

Saturday, November 17, 2012

  Actual Average Record
Temperature  
Mean Temperature 38 °F -  
Max Temperature 45 °F 45 °F 59 °F (1997)
Min Temperature 30 °F 35 °F 23 °F (1998)
Degree Days  
Heating Degree Days 28    
Moisture  
Dew Point 33 °F    
Average Humidity 75    
Maximum Humidity 93    
Minimum Humidity 51    
Precipitation  
Precipitation 0.00 in 0.07 in - ()
Sea Level Pressure  
Sea Level Pressure 29.54 in    
Wind  
Wind Speed 7 mph ()    
Max Wind Speed 14 mph    
Max Gust Speed -    
Visibility 6.2 miles    
Events Rain    
Averages and records for this station are not official NWS values.
T = Trace of Precipitation, MM = Missing Value Source: Averaged Metar Reports

Daily Weather History Graph

Daily Weather History Graph

Search for Another Location

Airport:

Trip Planner

Search our weather history database for the weather conditions in past years. The results will help you decide how hot, cold, wet, or windy it might be!

Date:

Astronomy

Nov. 17, 2012 Rise Set
Actual Time 8:04 AM GMT 3:53 PM GMT
Civil Twilight 7:18 AM GMT 4:39 PM GMT
Nautical Twilight 6:30 AM GMT 5:27 PM GMT
Astronomical Twilight 5:44 AM GMT 6:13 PM GMT
Moon 11:41 AM GMT (11/17) 7:46 PM GMT (11/17)
Length of Visible Light 9h 20m
Length of Day
7h 49m
Waxing Crescent, 18% of the Moon is Illuminated
Nov 17
Waxing Crescent
Nov 20
First Quarter
Nov 28
Full
Dec 6
Last Quarter
Dec 13
New

Hourly Weather History & Observations

Time (GMT) Temp. Windchill Dew Point Humidity Pressure Visibility Wind Dir Wind Speed Gust Speed Precip Events Conditions
12:50 AM 39.2 °F 35.0 °F 35.6 °F 87% 29.59 in 6.2 mi SSW 5.8 mph - N/A   Unknown
1:50 AM 39.2 °F 35.0 °F 35.6 °F 87% 29.59 in 6.2 mi WSW 5.8 mph - N/A   Partly Cloudy
2:50 AM 40 °F - 35 °F 76% 29.60 in 47 mi SW 6.9 mph - -   Mostly Cloudy
2:50 AM 39.2 °F 34.2 °F 35.6 °F 87% 29.59 in 6.2 mi SW 6.9 mph - N/A   Mostly Cloudy
3:50 AM 39.2 °F 33.6 °F 35.6 °F 87% 29.56 in 6.2 mi SW 8.1 mph - N/A   Partly Cloudy
4:50 AM 39.2 °F 34.2 °F 33.8 °F 81% 29.56 in 6.2 mi SSW 6.9 mph - N/A   Scattered Clouds
5:50 AM 40 °F - 33 °F 69% 29.57 in - SSW 6.9 mph - -  
5:50 AM 39.2 °F 34.2 °F 33.8 °F 81% 29.56 in - SSW 6.9 mph - N/A   Partly Cloudy
6:50 AM 37.4 °F 33.8 °F 32.0 °F 81% 29.56 in 6.2 mi SSW 4.6 mph - N/A   Partly Cloudy
7:50 AM 37.4 °F - 32.0 °F 81% 29.53 in 6.2 mi SSW 2.3 mph - N/A   Unknown
8:50 AM 31 °F - 28 °F 81% 29.56 in 47 mi NNE 3.5 mph - -  
8:50 AM 30.2 °F 26.7 °F 28.4 °F 93% 29.56 in 6.2 mi NNE 3.5 mph - N/A   Unknown
9:50 AM 39.2 °F 34.2 °F 32.0 °F 75% 29.53 in 6.2 mi SW 6.9 mph - N/A   Unknown
10:50 AM 42.8 °F 41.1 °F 33.8 °F 70% 29.53 in - SSE 3.5 mph - N/A   Unknown
11:50 AM 44 °F - 33 °F 54%  in 44 mi WSW 8.1 mph - -  
11:50 AM 44.6 °F 40.2 °F 33.8 °F 66% 29.53 in 6.2 mi WSW 8.1 mph - N/A   Unknown
12:50 PM 44.6 °F 38.4 °F 32.0 °F 61% 29.50 in 6.2 mi WSW 12.7 mph - N/A   Unknown
1:50 PM 44.6 °F 38.4 °F 32.0 °F 61% 29.47 in 6.2 mi SW 12.7 mph - N/A   Unknown
2:50 PM 44 °F - 32 °F 51% 29.50 in - SSW 12.7 mph - -   Scattered Clouds
2:50 PM 44.6 °F 38.4 °F 32.0 °F 61% 29.50 in - SSW 12.7 mph - N/A   Partly Cloudy
3:50 PM 41.0 °F 34.3 °F 32.0 °F 70% 29.47 in - SSW 11.5 mph - N/A   Partly Cloudy
4:50 PM 41.0 °F 34.7 °F 32.0 °F 70% 29.50 in 6.2 mi SSW 10.4 mph - N/A   Scattered Clouds
5:50 PM 40 °F - 33 °F 66% 29.52 in 34 mi SW 13.8 mph - -   Scattered Clouds
5:50 PM 39.2 °F 31.2 °F 32.0 °F 75% 29.50 in 6.2 mi SW 13.8 mph - N/A   Mostly Cloudy
6:50 PM 39.2 °F 31.2 °F 33.8 °F 81% 29.50 in 6.2 mi SW 13.8 mph - N/A Rain Light Rain Showers
7:50 PM 37.4 °F 29.3 °F 32.0 °F 81% 29.50 in 6.2 mi SSW 12.7 mph - N/A   Partly Cloudy
8:50 PM 37 °F - 31 °F 72% 29.55 in 31 mi SSW 5.8 mph - -   Scattered Clouds
8:50 PM 37.4 °F 32.8 °F 32.0 °F 81% 29.53 in 6.2 mi SSW 5.8 mph - N/A   Partly Cloudy
9:50 PM 37.4 °F 30.8 °F 32.0 °F 81% 29.53 in 6.2 mi SSW 9.2 mph - N/A   Unknown
10:50 PM 35.6 °F 30.7 °F 30.2 °F 81% 29.53 in 6.2 mi SSW 5.8 mph - N/A   Partly Cloudy
11:50 PM 35.6 °F 31.7 °F 30.2 °F 81% 29.56 in 6.2 mi SSW 4.6 mph - N/A   Unknown